| time (UTC) | temp F | wind direction | speed MPH | gust MPH | rain 1hr in | rain 24hr in | rain mn in | humidity % | barometer mb |
| 20260506001623 | 50 | 360 | 6.0 | 9.0 | 0.00 | 0.00 | 0.00 | 86 | 1007.9 |
| 20260506000109 | 50 | 360 | 4.0 | 12.0 | 0.00 | 0.00 | 0.00 | 85 | 1008.0 |
| 20260505234612 | 50 | 360 | 5.0 | 9.0 | 0.00 | 0.00 | 0.00 | 85 | 1008.1 |
| 20260505233055 | 50 | 360 | 5.0 | 11.0 | 0.00 | 0.00 | 0.00 | 84 | 1008.1 |
| 20260505231552 | 50 | 360 | 3.0 | 12.0 | 0.00 | 0.00 | 0.00 | 84 | 1008.3 |
| 20260505230051 | 50 | 360 | 4.0 | 10.0 | 0.00 | 0.00 | 0.00 | 84 | 1008.3 |
| 20260505224550 | 51 | 360 | 5.0 | 12.0 | 0.00 | 0.00 | 0.00 | 83 | 1008.4 |
| 20260505223103 | 51 | 360 | 4.0 | 12.0 | 0.00 | 0.00 | 0.00 | 83 | 1008.4 |
| 20260505221549 | 51 | 360 | 7.0 | 13.0 | 0.00 | 0.00 | 0.00 | 83 | 1008.6 |
| 20260505220049 | 51 | 360 | 7.0 | 14.0 | 0.00 | 0.00 | 0.00 | 82 | 1008.5 |
| 20260505214556 | 51 | 360 | 5.0 | 11.0 | 0.00 | 0.00 | 0.00 | 82 | 1008.7 |
| 20260505213048 | 51 | 360 | 3.0 | 12.0 | 0.00 | 0.00 | 0.00 | 81 | 1008.7 |
| 20260505211556 | 52 | 360 | 4.0 | 9.0 | 0.00 | 0.00 | 0.00 | 81 | 1008.7 |
| 20260505210046 | 52 | 360 | 6.0 | 10.0 | 0.00 | 0.00 | 0.00 | 83 | 1008.8 |
| 20260505204546 | 52 | 360 | 2.0 | 12.0 | 0.00 | 0.00 | 0.00 | 83 | 1008.8 |
| 20260505203105 | 52 | 360 | 5.0 | 9.0 | 0.00 | 0.00 | 0.00 | 83 | 1008.8 |
| 20260505201545 | 52 | 360 | 5.0 | 14.0 | 0.00 | 0.00 | 0.00 | 82 | 1008.9 |
| 20260505200045 | 52 | 360 | 6.0 | 12.0 | 0.00 | 0.00 | 0.00 | 83 | 1008.8 |
| 20260505194545 | 53 | 360 | 4.0 | 8.0 | 0.00 | 0.00 | 0.00 | 82 | 1008.7 |
| 20260505193044 | 53 | 360 | 3.0 | 9.0 | 0.00 | 0.00 | 0.00 | 80 | 1008.7 |
| 20260505191550 | 53 | 360 | 5.0 | 12.0 | 0.00 | 0.00 | 0.00 | 79 | 1008.5 |
| 20260505190044 | 53 | 360 | 5.0 | 10.0 | 0.00 | 0.00 | 0.00 | 79 | 1008.4 |
| 20260505184549 | 53 | 360 | 7.0 | 15.0 | 0.00 | 0.00 | 0.00 | 78 | 1008.3 |
| 20260505183047 | 54 | 360 | 7.0 | 12.0 | 0.00 | 0.00 | 0.00 | 77 | 1008.3 |
| 20260505181541 | 55 | 360 | 7.0 | 14.0 | 0.00 | 0.00 | 0.00 | 76 | 1008.2 |
| 20260505180046 | 56 | 360 | 6.0 | 13.0 | 0.00 | 0.00 | 0.00 | 76 | 1008.1 |
| 20260505174540 | 56 | 360 | 6.0 | 15.0 | 0.00 | 0.00 | 0.00 | 75 | 1007.9 |
| 20260505173040 | 57 | 360 | 8.0 | 13.0 | 0.00 | 0.00 | 0.00 | 74 | 1008.0 |
| 20260505171538 | 57 | 360 | 6.0 | 11.0 | 0.00 | 0.00 | 0.00 | 77 | 1008.0 |
| 20260505170039 | 57 | 360 | 6.0 | 10.0 | 0.00 | 0.00 | 0.00 | 78 | 1008.0 |
| 20260505164538 | 57 | 360 | 5.0 | 12.0 | 0.00 | 0.00 | 0.00 | 78 | 1008.2 |
| 20260505163035 | 57 | 360 | 6.0 | 12.0 | 0.00 | 0.00 | 0.00 | 78 | 1008.2 |
| 20260505161534 | 57 | 360 | 4.0 | 9.0 | 0.00 | 0.00 | 0.00 | 79 | 1008.3 |
| 20260505153030 | 56 | 360 | 6.0 | 10.0 | 0.00 | 0.00 | 0.00 | 80 | 1008.6 |
| 20260505151534 | 56 | 360 | 5.0 | 12.0 | 0.00 | 0.00 | 0.00 | 81 | 1008.6 |
| 20260505124517 | 53 | 360 | 4.0 | 11.0 | 0.00 | 0.01 | 0.00 | 85 | 1009.7 |
| 20260505123014 | 54 | 360 | 6.0 | 10.0 | 0.00 | 0.01 | 0.00 | 87 | 1009.7 |
| 20260505121513 | 53 | 360 | 5.0 | 11.0 | 0.00 | 0.01 | 0.00 | 86 | 1009.8 |
| 20260505120015 | 53 | 360 | 5.0 | 11.0 | 0.00 | 0.28 | 0.00 | 87 | 1009.8 |
| 20260505114509 | 0 | 0.0 | 0.0 | 0.00 | 0.28 | 0.00 | 1009.9 | ||
| 20260505113007 | 54 | 360 | 6.0 | 12.0 | 0.00 | 0.28 | 0.00 | 86 | 1009.9 |
| 20260505111515 | 53 | 360 | 7.0 | 13.0 | 0.00 | 0.28 | 0.00 | 87 | 1009.9 |
| 20260505101605 | 51 | 360 | 5.0 | 12.0 | 0.00 | 0.28 | 0.00 | 91 | 1010.2 |
| 20260505100100 | 51 | 360 | 6.0 | 12.0 | 0.00 | 0.28 | 0.00 | 91 | 1010.4 |
| 20260505094602 | 51 | 360 | 5.0 | 12.0 | 0.00 | 0.28 | 0.00 | 92 | 1010.4 |
| 20260505093057 | 50 | 360 | 6.0 | 12.0 | 0.00 | 0.28 | 0.00 | 92 | 1010.5 |
| 20260505091557 | 50 | 360 | 6.0 | 11.0 | 0.00 | 0.28 | 0.00 | 92 | 1010.5 |
| 20260505090058 | 50 | 360 | 7.0 | 11.0 | 0.00 | 0.28 | 0.00 | 93 | 1010.4 |
| 20260505084600 | 49 | 360 | 7.0 | 12.0 | 0.00 | 0.28 | 0.00 | 93 | 1010.5 |
| 20260505083104 | 49 | 360 | 5.0 | 15.0 | 0.00 | 0.28 | 0.00 | 94 | 1010.4 |
| 20260505081551 | 49 | 360 | 6.0 | 15.0 | 0.00 | 0.28 | 0.00 | 95 | 1010.5 |
| 20260505080049 | 49 | 360 | 9.0 | 15.0 | 0.00 | 0.28 | 0.00 | 95 | 1010.5 |
| 20260505074545 | 0 | 0.0 | 0.0 | 0.00 | 0.28 | 0.00 | 1010.5 | ||
| 20260505073042 | 0 | 0.0 | 0.0 | 0.00 | 0.28 | 0.00 | 1010.4 | ||
| 20260505071537 | 49 | 360 | 8.0 | 14.0 | 0.00 | 0.28 | 0.00 | 95 | 1010.4 |
| 20260505070046 | 49 | 360 | 2.0 | 10.0 | 0.00 | 0.28 | 0.00 | 95 | 1010.4 |
| 20260505064537 | 49 | 360 | 6.0 | 13.0 | 0.00 | 0.28 | 0.00 | 96 | 1010.6 |
| 20260505063034 | 49 | 360 | 7.0 | 12.0 | 0.00 | 0.28 | 0.00 | 96 | 1010.5 |
| 20260505061552 | 49 | 360 | 7.0 | 12.0 | 0.00 | 0.28 | 0.00 | 96 | 1010.7 |
| 20260505060028 | 49 | 360 | 6.0 | 14.0 | 0.00 | 0.28 | 0.00 | 96 | 1010.8 |
| 20260505054540 | 49 | 360 | 6.0 | 12.0 | 0.00 | 0.28 | 0.00 | 96 | 1010.9 |
| 20260505053026 | 49 | 360 | 3.0 | 11.0 | 0.00 | 0.28 | 0.00 | 96 | 1010.8 |
| 20260505051523 | 49 | 360 | 4.0 | 11.0 | 0.00 | 0.28 | 0.00 | 96 | 1010.6 |
| 20260505041518 | 49 | 360 | 6.0 | 11.0 | 0.00 | 0.28 | 0.00 | 96 | 1010.4 |
| 20260505040034 | 49 | 360 | 3.0 | 9.0 | 0.00 | 0.28 | 0.00 | 96 | 1010.4 |
| 20260505034523 | 49 | 360 | 4.0 | 11.0 | 0.00 | 0.28 | 0.00 | 95 | 1010.5 |
| 20260505033016 | 49 | 360 | 5.0 | 10.0 | 0.00 | 0.28 | 0.00 | 95 | 1010.4 |
| 20260505031513 | 49 | 360 | 5.0 | 11.0 | 0.00 | 0.28 | 0.00 | 95 | 1010.5 |
| 20260505030016 | 50 | 360 | 9.0 | 18.0 | 0.00 | 0.28 | 0.00 | 95 | 1010.5 |
| 20260505024510 | 50 | 360 | 5.0 | 11.0 | 0.00 | 0.28 | 0.00 | 95 | 1010.5 |
| 20260505023008 | 50 | 360 | 5.0 | 12.0 | 0.00 | 0.28 | 0.00 | 95 | 1010.4 |
| 20260505021506 | 50 | 360 | 6.0 | 12.0 | 0.00 | 0.28 | 0.00 | 95 | 1010.5 |
| 20260505020008 | 50 | 360 | 7.0 | 14.0 | 0.00 | 0.28 | 0.00 | 95 | 1010.6 |
| 20260505014503 | 51 | 360 | 7.0 | 13.0 | 0.00 | 0.28 | 0.00 | 95 | 1010.6 |
| 20260505013104 | 51 | 360 | 9.0 | 14.0 | 0.00 | 0.28 | 0.00 | 95 | 1010.6 |
| 20260505011613 | 52 | 360 | 6.0 | 12.0 | 0.00 | 0.28 | 0.00 | 95 | 1010.8 |
| 20260505010106 | 52 | 360 | 6.0 | 16.0 | 0.00 | 0.28 | 0.00 | 94 | 1010.8 |
| 20260505004554 | 52 | 360 | 7.0 | 14.0 | 0.00 | 0.28 | 0.00 | 94 | 1010.8 |
| 20260505003053 | 53 | 360 | 5.0 | 12.0 | 0.00 | 0.28 | 0.00 | 93 | 1010.9 |